STARLINK-1663, 46535

Orbit data source: Space-Track

STARLINK-1663, 46535 is a payload satellite owned by SpaceX/Seattle (US) in LEO that was launched on Tue, 06 Oct 2020 UTC via an FALCON 9 launch vehicle from the Air Force Eastern Test Range (AFETR). Payload-class satellites include a variety of spacecraft equipped with specific instruments for various scientific and technological missions. These include communications satellites like Starlink; space stations such as the ISS; scientific satellites like the Hubble; Earth observation satellites from companies like Planet Labs, Umbra, and HawkEye 360; GPS; miniature CubeSats for education and research; and military/defense satellites.

Loading next visibility...
Identifier
46535, 2020-070D
Orbit
LEO
Country
Flag of USUS
Related business
Manufacturer
SpaceX/Seattle
Mission
Partially operational Commercial Communications
Bus & Motor
STARLINK, Unknown motor
Mass
260 kg wet, ~248 kg dry
Launch date (UTC)
2020-10-06 (6 years ago)
Launch vehicle
FALCON 9
Launch site
Air Force Eastern Test Range (AFETR)
Object type
Payload
Rocket body
Debris
Shape & HBR
Box + 1 Pan, 10.1 m
Radar Cross Section
13.562 m², Large (>1 m²)

Expand to show TLE details & history
Last TLE update: 4 hours ago

TLE from 4 hours ago
0 STARLINK-1663
1 46535U 20070D   26123.33334491  .00097197  00000-0  57932-3 0  9998
2 46535  53.0370 224.7798 0006721 340.9066 200.4040 15.77153321  5994
Epoch: 2026-05-03T08:00Z
TLE epoch observation values (Epoch: 2026-05-03T08:00:01.000Z)
Latitude
-1.11408°
Longitude
64.37105°
Altitude
343.798 km
Speed
7.701 km/s
True Right ascension
03h 02m 27s
True Declination
-1° 06' 25"
Sunlit
Object was in daylight at epoch
Visualization orbit readout
Latitude
Unknown
Longitude
Unknown
Altitude
Unknown
Speed
Unknown
Apparent Right ascension
Unknown
Apparent Declination
Unknown
Sunlit
N/A
Visualization observer readout
Local Sidereal Time
19:51:53
Azimuth
Unknown
Elevation
Unknown
Doppler factor
Unknown
Orbital elements
Apogee altitude
343.307 km
Perigee altitude
334.278 km
Semi-major axis
6,716.929 km
Eccentricity
0.00067
Inclination
53.037°
RAAN
224.7798°
Arg. of periapsis
340.9066°
True anomaly
200.37717°
Mean anomaly
200.404°
Eccentric anomaly
200.39058°
Mean motion
3.94264 °/min
Orbital period
91.31 mins
BSTAR
0.00057932
Loading maneuver chart data...
Computing Atmospheric mass density...

Documentation

Showing up to 5 results
|